ANA592 RJOM-RJTT

Flight info

Callsign ANA592
Flight time 1h 10m
Altitude 37000
Route SAKAR KRE V37 PADOC Y43 MENUR Y21 AKSEL
Aircraft B772/H-Q/LB1D1

Departure

Time 2026-05-05 05:43
Airport Matsuyama Airport (RJOM)

Arrival

Time 2026-05-05 06:54
Airport Tokyo Haneda International Airport (RJTT)
Time Latitude Longitude Altitude Speed Heading
2026-05-05 05:10 33.82830 132.70361 30 ft 0 kts 41°
2026-05-05 05:33 33.82828 132.70358 30 ft 3 kts 41°
2026-05-05 05:33 33.82808 132.70337 30 ft 4 kts 45°
2026-05-05 05:33 33.82790 132.70314 28 ft 4 kts 49°
2026-05-05 05:33 33.82773 132.70288 28 ft 4 kts 55°
2026-05-05 05:34 33.82759 132.70261 28 ft 4 kts 72°
2026-05-05 05:34 33.82757 132.70233 27 ft 3 kts 125°
2026-05-05 05:34 33.82759 132.70230 26 ft 0 kts 129°
2026-05-05 05:37 33.82746 132.70245 28 ft 4 kts 136°
2026-05-05 05:37 33.82709 132.70290 29 ft 8 kts 131°
2026-05-05 05:37 33.82669 132.70346 29 ft 10 kts 130°
2026-05-05 05:38 33.82623 132.70411 27 ft 10 kts 130°
2026-05-05 05:38 33.82577 132.70475 29 ft 10 kts 130°
2026-05-05 05:38 33.82530 132.70541 29 ft 10 kts 131°
2026-05-05 05:38 33.82484 132.70605 30 ft 10 kts 131°
2026-05-05 05:39 33.82435 132.70673 30 ft 11 kts 131°
2026-05-05 05:39 33.82384 132.70742 30 ft 11 kts 131°
2026-05-05 05:39 33.82334 132.70815 28 ft 12 kts 128°
2026-05-05 05:39 33.82281 132.70893 30 ft 12 kts 129°
2026-05-05 05:40 33.82226 132.70970 30 ft 12 kts 133°
2026-05-05 05:40 33.82154 132.71013 29 ft 12 kts 179°
2026-05-05 05:40 33.82099 132.71008 29 ft 0 kts 191°
2026-05-05 05:40 33.82099 132.71007 29 ft 0 kts 191°
2026-05-05 05:41 33.82081 132.71003 29 ft 11 kts 191°
2026-05-05 05:41 33.82044 132.70928 28 ft 12 kts 289°
2026-05-05 05:41 33.82060 132.70898 28 ft 0 kts 306°
2026-05-05 05:42 33.82062 132.70895 28 ft 3 kts 306°
2026-05-05 05:43 33.82093 132.70845 28 ft 21 kts 307°
2026-05-05 05:43 33.82375 132.70440 29 ft 114 kts 308°
2026-05-05 05:43 33.83063 132.69488 497 ft 165 kts 308°
2026-05-05 05:43 33.83744 132.68431 2030 ft 158 kts 295°
2026-05-05 05:44 33.83885 132.67022 2522 ft 190 kts 255°
2026-05-05 05:44 33.83028 132.65687 2711 ft 222 kts 210°
2026-05-05 05:44 33.81432 132.65325 3006 ft 252 kts 171°
2026-05-05 05:44 33.79725 132.65904 3638 ft 258 kts 162°
2026-05-05 05:45 33.78016 132.66501 4814 ft 251 kts 164°
2026-05-05 05:45 33.76305 132.67045 5766 ft 256 kts 165°
2026-05-05 05:45 33.74560 132.67554 6733 ft 259 kts 166°
2026-05-05 05:45 33.72809 132.68033 7623 ft 263 kts 167°
2026-05-05 05:46 33.71003 132.68512 8517 ft 268 kts 167°
2026-05-05 05:46 33.69167 132.69001 9458 ft 273 kts 167°
2026-05-05 05:46 33.67322 132.69578 10247 ft 276 kts 158°
2026-05-05 05:46 33.65647 132.70882 10576 ft 302 kts 142°
2026-05-05 05:47 33.63948 132.72570 10809 ft 332 kts 143°
2026-05-05 05:47 33.62068 132.74324 11404 ft 349 kts 144°
2026-05-05 05:47 33.60108 132.76119 12232 ft 359 kts 144°
2026-05-05 05:47 33.58323 132.78236 12932 ft 372 kts 125°
2026-05-05 05:48 33.57327 132.81132 13971 ft 382 kts 103°
2026-05-05 05:48 33.57088 132.84306 14862 ft 386 kts 94°
2026-05-05 05:48 33.57000 132.87569 15645 ft 396 kts 93°
2026-05-05 05:48 33.56923 132.90903 16555 ft 403 kts 93°
2026-05-05 05:49 33.56838 132.94285 17483 ft 409 kts 93°
2026-05-05 05:49 33.56740 132.97732 18304 ft 417 kts 93°
2026-05-05 05:49 33.56630 133.01239 19014 ft 425 kts 94°
2026-05-05 05:49 33.56510 133.04797 19815 ft 430 kts 94°
2026-05-05 05:50 33.56385 133.08359 20487 ft 437 kts 94°
2026-05-05 05:50 33.56255 133.12021 21130 ft 443 kts 94°
2026-05-05 05:50 33.56120 133.15757 21740 ft 453 kts 94°
2026-05-05 05:50 33.55984 133.19563 22396 ft 460 kts 94°
2026-05-05 05:51 33.55848 133.23420 23128 ft 466 kts 94°
2026-05-05 05:51 33.55710 133.27354 23741 ft 475 kts 94°
2026-05-05 05:51 33.55564 133.31350 24299 ft 483 kts 95°
2026-05-05 05:51 33.55416 133.35406 24890 ft 490 kts 95°
2026-05-05 05:52 33.55266 133.39516 25463 ft 497 kts 95°
2026-05-05 05:52 33.55112 133.43676 26003 ft 503 kts 96°
2026-05-05 05:52 33.54955 133.47900 26516 ft 511 kts 96°
2026-05-05 05:52 33.54799 133.52128 27004 ft 518 kts 96°
2026-05-05 05:53 33.54637 133.56463 27515 ft 523 kts 96°
2026-05-05 05:53 33.54473 133.60851 28039 ft 529 kts 96°
2026-05-05 05:53 33.54303 133.65283 28473 ft 536 kts 97°
2026-05-05 05:53 33.54128 133.69772 28904 ft 542 kts 97°
2026-05-05 05:54 33.53939 133.74308 29355 ft 547 kts 97°
2026-05-05 05:54 33.53740 133.78883 29832 ft 552 kts 97°
2026-05-05 05:54 33.53535 133.83506 30288 ft 557 kts 98°
2026-05-05 05:54 33.53327 133.88168 30674 ft 562 kts 98°
2026-05-05 05:55 33.53119 133.92870 31067 ft 565 kts 98°
2026-05-05 05:55 33.52911 133.97587 31491 ft 568 kts 98°
2026-05-05 05:55 33.52707 134.02332 31921 ft 570 kts 98°
2026-05-05 05:55 33.52497 134.07023 32300 ft 573 kts 98°
2026-05-05 05:56 33.52275 134.11807 32666 ft 577 kts 98°
2026-05-05 05:56 33.52049 134.16624 33096 ft 580 kts 98°
2026-05-05 05:56 33.51827 134.21461 33390 ft 584 kts 98°
2026-05-05 05:56 33.51577 134.26337 33766 ft 586 kts 99°
2026-05-05 05:57 33.51325 134.31202 34332 ft 583 kts 99°
2026-05-05 05:57 33.51080 134.36044 34804 ft 581 kts 99°
2026-05-05 05:57 33.50846 134.40884 35302 ft 580 kts 98°
2026-05-05 05:57 33.50651 134.45700 35760 ft 578 kts 98°
2026-05-05 05:58 33.50472 134.50514 36226 ft 577 kts 97°
2026-05-05 05:58 33.50353 134.53693 36522 ft 576 kts 97°
2026-05-05 05:58 33.50100 134.60031 37072 ft 575 kts 98°
2026-05-05 05:58 33.49894 134.64819 37186 ft 578 kts 98°
2026-05-05 05:59 33.49532 134.72844 37178 ft 577 kts 98°
2026-05-05 05:59 33.49099 134.82395 37178 ft 573 kts 98°
2026-05-05 06:00 33.48661 134.91934 37203 ft 574 kts 98°
2026-05-05 06:00 33.48218 135.01491 37158 ft 574 kts 98°
2026-05-05 06:01 33.47791 135.11044 37168 ft 574 kts 98°
2026-05-05 06:01 33.47365 135.20607 37182 ft 574 kts 98°
2026-05-05 06:02 33.46928 135.30162 37185 ft 575 kts 98°
2026-05-05 06:02 33.46503 135.39671 37193 ft 576 kts 98°
2026-05-05 06:03 33.46109 135.49250 37187 ft 576 kts 98°
2026-05-05 06:03 33.45707 135.58823 37204 ft 575 kts 98°
2026-05-05 06:04 33.45290 135.68389 37180 ft 575 kts 98°
2026-05-05 06:04 33.45157 135.78000 37189 ft 580 kts 90°
2026-05-05 06:05 33.46243 135.87607 37178 ft 584 kts 78°
2026-05-05 06:05 33.48164 135.97056 37158 ft 584 kts 77°
2026-05-05 06:06 33.50091 136.06499 37198 ft 583 kts 78°
2026-05-05 06:06 33.51950 136.15969 37192 ft 583 kts 78°
2026-05-05 06:07 33.53759 136.25380 37190 ft 583 kts 78°
2026-05-05 06:07 33.55577 136.34864 37195 ft 583 kts 78°
2026-05-05 06:08 33.57394 136.44352 37192 ft 583 kts 78°
2026-05-05 06:08 33.59207 136.53852 37191 ft 583 kts 78°
2026-05-05 06:09 33.61002 136.63302 37201 ft 584 kts 78°
2026-05-05 06:09 33.62799 136.72804 37190 ft 584 kts 78°
2026-05-05 06:10 33.64594 136.82294 37198 ft 583 kts 78°
2026-05-05 06:10 33.66401 136.91792 37195 ft 584 kts 78°
2026-05-05 06:11 33.68200 137.01294 37204 ft 584 kts 78°
2026-05-05 06:11 33.69990 137.10803 37188 ft 584 kts 78°
2026-05-05 06:12 33.71758 137.20324 37188 ft 584 kts 79°
2026-05-05 06:12 33.73503 137.29852 37196 ft 584 kts 79°
2026-05-05 06:13 33.75245 137.39390 37199 ft 584 kts 79°
2026-05-05 06:13 33.76968 137.48855 37186 ft 584 kts 79°
2026-05-05 06:14 33.78697 137.58386 37178 ft 583 kts 79°
2026-05-05 06:14 33.80420 137.67927 37195 ft 583 kts 79°
2026-05-05 06:15 33.82140 137.77469 37198 ft 583 kts 79°
2026-05-05 06:15 33.83854 137.87013 37198 ft 584 kts 79°
2026-05-05 06:16 33.85549 137.96500 37200 ft 584 kts 79°
2026-05-05 06:16 33.87250 138.06071 37211 ft 584 kts 79°
2026-05-05 06:17 33.88942 138.15633 37197 ft 584 kts 79°
2026-05-05 06:17 33.90819 138.25154 37213 ft 585 kts 73°
2026-05-05 06:18 33.92157 138.29785 37074 ft 587 kts 68°
2026-05-05 06:18 33.93785 138.34314 36335 ft 591 kts 61°
2026-05-05 06:18 33.95722 138.38675 35643 ft 589 kts 58°
2026-05-05 06:18 33.97710 138.42995 34838 ft 592 kts 58°
2026-05-05 06:19 33.99694 138.47299 33970 ft 595 kts 58°
2026-05-05 06:19 34.01697 138.51689 32993 ft 598 kts 59°
2026-05-05 06:19 34.03682 138.56104 32038 ft 600 kts 59°
2026-05-05 06:19 34.05656 138.60544 31065 ft 601 kts 60°
2026-05-05 06:20 34.07627 138.65007 29974 ft 603 kts 60°
2026-05-05 06:20 34.09605 138.69497 28788 ft 605 kts 60°
2026-05-05 06:20 34.11564 138.73948 28058 ft 595 kts 60°
2026-05-05 06:20 34.13491 138.78325 27302 ft 587 kts 60°
2026-05-05 06:21 34.15395 138.82645 26560 ft 579 kts 60°
2026-05-05 06:21 34.17272 138.86906 25900 ft 568 kts 60°
2026-05-05 06:21 34.19074 138.91005 25137 ft 539 kts 59°
2026-05-05 06:21 34.20786 138.94906 24436 ft 515 kts 59°
2026-05-05 06:22 34.22438 138.98692 23791 ft 514 kts 59°
2026-05-05 06:22 34.24091 139.02511 23001 ft 512 kts 60°
2026-05-05 06:22 34.25728 139.06307 22295 ft 506 kts 60°
2026-05-05 06:22 34.27309 139.09976 21609 ft 478 kts 60°
2026-05-05 06:23 34.28778 139.13507 21075 ft 465 kts 63°
2026-05-05 06:23 34.30080 139.17037 20815 ft 457 kts 62°
2026-05-05 06:23 34.31671 139.20371 20514 ft 457 kts 53°
2026-05-05 06:23 34.33468 139.23550 20220 ft 456 kts 52°
2026-05-05 06:24 34.35262 139.26683 19921 ft 450 kts 52°
2026-05-05 06:24 34.37026 139.29780 19623 ft 444 kts 53°
2026-05-05 06:24 34.38758 139.32853 19327 ft 439 kts 53°
2026-05-05 06:24 34.40462 139.35907 19049 ft 435 kts 53°
2026-05-05 06:25 34.42138 139.38928 18775 ft 430 kts 54°
2026-05-05 06:25 34.43795 139.41927 18491 ft 426 kts 54°
2026-05-05 06:25 34.45435 139.44902 18164 ft 422 kts 54°
2026-05-05 06:25 34.47056 139.47847 17866 ft 419 kts 54°
2026-05-05 06:26 34.48668 139.50775 17581 ft 416 kts 54°
2026-05-05 06:26 34.50245 139.53642 17317 ft 413 kts 54°
2026-05-05 06:26 34.51836 139.56535 17048 ft 411 kts 54°
2026-05-05 06:26 34.53421 139.59419 16777 ft 409 kts 54°
2026-05-05 06:27 34.54998 139.62291 16506 ft 408 kts 54°
2026-05-05 06:27 34.58128 139.68000 15984 ft 405 kts 54°
2026-05-05 06:27 34.59684 139.70841 15726 ft 403 kts 54°
2026-05-05 06:28 34.61231 139.73669 15453 ft 401 kts 54°
2026-05-05 06:28 34.62772 139.76488 15190 ft 399 kts 54°
2026-05-05 06:28 34.64303 139.79289 14927 ft 398 kts 54°
2026-05-05 06:28 34.65833 139.82089 14668 ft 396 kts 54°
2026-05-05 06:29 34.67503 139.84639 14392 ft 382 kts 39°
2026-05-05 06:29 34.69686 139.86429 14080 ft 377 kts 27°
2026-05-05 06:29 34.72003 139.87929 13669 ft 377 kts 23°
2026-05-05 06:29 34.74364 139.89224 13308 ft 377 kts 20°
2026-05-05 06:30 34.76782 139.90452 12989 ft 376 kts 20°
2026-05-05 06:30 34.79197 139.91657 12709 ft 374 kts 20°
2026-05-05 06:30 34.81598 139.92861 12446 ft 373 kts 20°
2026-05-05 06:30 34.83990 139.94074 12179 ft 372 kts 20°
2026-05-05 06:31 34.86372 139.95294 11914 ft 370 kts 21°
2026-05-05 06:31 34.88742 139.96518 11650 ft 369 kts 21°
2026-05-05 06:31 34.91095 139.97740 11444 ft 366 kts 21°
2026-05-05 06:31 34.93435 139.98957 11204 ft 364 kts 21°
2026-05-05 06:32 34.95765 140.00171 10929 ft 363 kts 21°
2026-05-05 06:32 34.98085 140.01382 10658 ft 363 kts 21°
2026-05-05 06:32 35.00398 140.02590 10415 ft 361 kts 21°
2026-05-05 06:32 35.02705 140.03795 10166 ft 359 kts 21°
2026-05-05 06:33 35.04992 140.04993 9920 ft 357 kts 21°
2026-05-05 06:33 35.07251 140.06176 9838 ft 349 kts 21°
2026-05-05 06:33 35.09394 140.07301 9664 ft 322 kts 21°
2026-05-05 06:33 35.11384 140.08348 9552 ft 306 kts 20°
2026-05-05 06:34 35.13318 140.09360 9501 ft 299 kts 21°
2026-05-05 06:34 35.15212 140.10352 9441 ft 292 kts 20°
2026-05-05 06:34 35.17035 140.11307 9247 ft 282 kts 20°
2026-05-05 06:34 35.18825 140.12248 9184 ft 278 kts 20°
2026-05-05 06:35 35.20575 140.13167 9106 ft 271 kts 21°
2026-05-05 06:35 35.22302 140.14074 9061 ft 267 kts 20°
2026-05-05 06:35 35.24005 140.14966 9026 ft 266 kts 21°
2026-05-05 06:35 35.25716 140.15865 9029 ft 269 kts 20°
2026-05-05 06:36 35.27440 140.16772 9026 ft 271 kts 20°
2026-05-05 06:36 35.29173 140.17683 9020 ft 271 kts 21°
2026-05-05 06:36 35.30905 140.18595 9017 ft 271 kts 20°
2026-05-05 06:36 35.32635 140.19507 9015 ft 270 kts 20°
2026-05-05 06:37 35.34337 140.20404 9014 ft 269 kts 20°
2026-05-05 06:37 35.36056 140.21310 9007 ft 268 kts 20°
2026-05-05 06:37 35.37778 140.22106 8986 ft 261 kts
2026-05-05 06:37 35.39600 140.22370 8896 ft 262 kts 357°
2026-05-05 06:38 35.41329 140.21794 8782 ft 262 kts 327°
2026-05-05 06:38 35.42783 140.20464 8678 ft 262 kts 323°
2026-05-05 06:38 35.44257 140.19126 8554 ft 264 kts 323°
2026-05-05 06:38 35.45735 140.17798 8449 ft 262 kts 323°
2026-05-05 06:39 35.47199 140.16487 8331 ft 260 kts 323°
2026-05-05 06:39 35.48654 140.15181 8221 ft 258 kts 323°
2026-05-05 06:39 35.50105 140.13881 8115 ft 258 kts 323°
2026-05-05 06:39 35.51557 140.12578 8021 ft 258 kts 323°
2026-05-05 06:40 35.53005 140.11280 7901 ft 258 kts 323°
2026-05-05 06:40 35.54455 140.09980 7796 ft 258 kts 323°
2026-05-05 06:40 35.55889 140.08695 7694 ft 258 kts 323°
2026-05-05 06:40 35.57342 140.07391 7576 ft 258 kts 322°
2026-05-05 06:41 35.58796 140.06088 7468 ft 258 kts 323°
2026-05-05 06:41 35.60245 140.04787 7366 ft 257 kts 322°
2026-05-05 06:41 35.61682 140.03498 7252 ft 254 kts 322°
2026-05-05 06:41 35.63097 140.02228 7142 ft 250 kts 322°
2026-05-05 06:42 35.64502 140.00965 7045 ft 250 kts 322°
2026-05-05 06:42 35.65909 139.99700 6949 ft 250 kts 322°
2026-05-05 06:42 35.67312 139.98438 6846 ft 250 kts 322°
2026-05-05 06:42 35.68722 139.97170 6749 ft 251 kts 322°
2026-05-05 06:43 35.70122 139.95911 6650 ft 255 kts 322°
2026-05-05 06:43 35.71572 139.94603 6555 ft 261 kts 322°
2026-05-05 06:43 35.73037 139.93282 6451 ft 261 kts 322°
2026-05-05 06:43 35.74508 139.91957 6338 ft 262 kts 321°
2026-05-05 06:44 35.75983 139.90628 6230 ft 263 kts 322°
2026-05-05 06:44 35.77463 139.89294 6118 ft 264 kts 321°
2026-05-05 06:44 35.78886 139.87903 5982 ft 256 kts 310°
2026-05-05 06:44 35.79706 139.86029 5820 ft 242 kts 285°
2026-05-05 06:45 35.80211 139.84101 5588 ft 233 kts 287°
2026-05-05 06:45 35.80738 139.82226 5387 ft 230 kts 285°
2026-05-05 06:45 35.81216 139.80368 5177 ft 226 kts 281°
2026-05-05 06:45 35.81504 139.78463 4970 ft 226 kts 277°
2026-05-05 06:46 35.81672 139.77193 4843 ft 228 kts 277°
2026-05-05 06:46 35.81872 139.74645 4542 ft 219 kts 256°
2026-05-05 06:46 35.81240 139.73059 4409 ft 199 kts 226°
2026-05-05 06:46 35.80209 139.72040 4359 ft 183 kts 210°
2026-05-05 06:47 35.79141 139.71262 4305 ft 174 kts 208°
2026-05-05 06:47 35.78100 139.70533 4215 ft 171 kts 208°
2026-05-05 06:47 35.77069 139.69812 4142 ft 169 kts 208°
2026-05-05 06:47 35.76397 139.69343 4083 ft 167 kts 208°
2026-05-05 06:48 35.75385 139.68641 4020 ft 164 kts 204°
2026-05-05 06:48 35.74305 139.68434 3886 ft 157 kts 170°
2026-05-05 06:48 35.73222 139.68715 3822 ft 166 kts 172°
2026-05-05 06:48 35.72073 139.68941 3710 ft 165 kts 173°
2026-05-05 06:49 35.70972 139.69166 3555 ft 158 kts 172°
2026-05-05 06:49 35.69903 139.69378 3433 ft 155 kts 174°
2026-05-05 06:49 35.68839 139.69789 3205 ft 168 kts 150°
2026-05-05 06:49 35.67856 139.70581 2984 ft 167 kts 152°
2026-05-05 06:50 35.66901 139.71283 2746 ft 155 kts 153°
2026-05-05 06:50 35.65983 139.71947 2490 ft 154 kts 154°
2026-05-05 06:50 35.65070 139.72604 2285 ft 150 kts 153°
2026-05-05 06:50 35.64173 139.73249 2013 ft 149 kts 154°
2026-05-05 06:51 35.63277 139.73888 1833 ft 151 kts 154°
2026-05-05 06:51 35.62377 139.74532 1595 ft 149 kts 154°
2026-05-05 06:51 35.61493 139.75162 1427 ft 142 kts 153°
2026-05-05 06:51 35.60690 139.75736 1346 ft 126 kts 153°
2026-05-05 06:52 35.59949 139.76290 1094 ft 123 kts 152°
2026-05-05 06:52 35.59236 139.76813 814 ft 116 kts 152°
2026-05-05 06:52 35.58553 139.77275 680 ft 114 kts 154°
2026-05-05 06:52 35.57857 139.77756 463 ft 115 kts 153°
2026-05-05 06:53 35.57156 139.78269 226 ft 115 kts 154°
2026-05-05 06:53 35.56474 139.78751 136 ft 117 kts 154°
2026-05-05 06:53 35.55773 139.79237 48 ft 112 kts 155°
2026-05-05 06:53 35.55157 139.79667 31 ft 86 kts 150°
2026-05-05 06:54 35.54838 139.79888 33 ft 25 kts 154°
2026-05-05 06:54 35.54695 139.79926 31 ft 19 kts 171°
2026-05-05 06:54 35.54646 139.79926 30 ft 0 kts 187°
2026-05-05 06:54 35.54628 139.79923 30 ft 6 kts 187°
2026-05-05 06:55 35.54590 139.79897 29 ft 7 kts 231°
2026-05-05 06:55 35.54566 139.79846 29 ft 7 kts 239°
2026-05-05 06:55 35.54542 139.79790 27 ft 8 kts 252°
2026-05-05 06:55 35.54555 139.79725 28 ft 8 kts 311°
2026-05-05 06:56 35.54605 139.79680 27 ft 12 kts 325°
2026-05-05 06:56 35.54680 139.79628 28 ft 12 kts 329°
2026-05-05 06:56 35.54754 139.79575 30 ft 12 kts 329°
2026-05-05 06:56 35.54827 139.79522 32 ft 12 kts 329°
2026-05-05 06:57 35.54901 139.79469 32 ft 12 kts 329°
2026-05-05 06:57 35.54977 139.79416 31 ft 13 kts 330°
2026-05-05 06:57 35.55050 139.79358 30 ft 13 kts 312°
2026-05-05 06:57 35.55049 139.79254 31 ft 13 kts 245°
2026-05-05 06:58 35.55031 139.79171 32 ft 5 kts 264°
2026-05-05 06:58 35.55030 139.79161 32 ft 5 kts 259°
2026-05-05 06:58 35.55014 139.79111 31 ft 7 kts 240°
2026-05-05 06:58 35.55002 139.79085 31 ft 2 kts 240°
2026-05-05 06:59 35.54996 139.79072 32 ft 0 kts 239°